| time (UTC) | temp C | wind direction | speed KPH | gust KPH | rain 1hr cm | rain 24hr cm | rain mn cm | humidity % | barometer mb |
| 20260504204553 | 24 | 140 | 0.0 | 6.4 | 0.00 | 0.00 | 0.00 | 36 | 1011.7 |
| 20260504203047 | 24 | 150 | 0.0 | 11.3 | 0.00 | 0.00 | 0.00 | 35 | 1011.9 |
| 20260504201548 | 24 | 141 | 1.6 | 14.5 | 0.00 | 0.00 | 0.00 | 35 | 1012.0 |
| 20260504200040 | 25 | 188 | 0.0 | 3.2 | 0.00 | 0.00 | 0.00 | 36 | 1012.2 |
| 20260504194558 | 25 | 188 | 1.6 | 11.3 | 0.00 | 0.00 | 0.00 | 35 | 1012.4 |
| 20260504193037 | 25 | 188 | 0.0 | 6.4 | 0.00 | 0.00 | 0.00 | 36 | 1012.5 |
| 20260504191545 | 25 | 194 | 0.0 | 4.8 | 0.00 | 0.00 | 0.00 | 36 | 1012.7 |
| 20260504190043 | 25 | 194 | 0.0 | 9.7 | 0.00 | 0.00 | 0.00 | 36 | 1013.1 |
| 20260504184537 | 25 | 195 | 0.0 | 9.7 | 0.00 | 0.00 | 0.00 | 35 | 1013.2 |
| 20260504183028 | 25 | 194 | 0.0 | 8.0 | 0.00 | 0.00 | 0.00 | 36 | 1013.4 |
| 20260504181526 | 24 | 192 | 0.0 | 4.8 | 0.00 | 0.00 | 0.00 | 37 | 1013.6 |
| 20260504180023 | 23 | 192 | 0.0 | 0.0 | 0.00 | 0.00 | 0.00 | 37 | 1013.5 |
| 20260504174522 | 23 | 193 | 1.6 | 12.9 | 0.00 | 0.00 | 0.00 | 37 | 1013.5 |
| 20260504173021 | 23 | 196 | 0.0 | 3.2 | 0.00 | 0.00 | 0.00 | 36 | 1013.9 |
| 20260504171520 | 23 | 196 | 1.6 | 9.7 | 0.00 | 0.00 | 0.00 | 37 | 1014.1 |
| 20260504081555 | 4 | 186 | 0.0 | 0.0 | 0.00 | 0.00 | 0.00 | 90 | 1015.4 |
| 20260504044533 | 7 | 186 | 0.0 | 0.0 | 0.00 | 0.00 | 0.00 | 81 | 1015.6 |
| 20260504043031 | 7 | 186 | 0.0 | 0.0 | 0.00 | 0.00 | 0.00 | 79 | 1015.3 |
| 20260504041529 | 7 | 186 | 0.0 | 0.0 | 0.00 | 0.00 | 0.00 | 78 | 1015.4 |
| 20260504040030 | 7 | 186 | 0.0 | 0.0 | 0.00 | 0.00 | 0.00 | 77 | 1015.5 |
| 20260504034538 | 7 | 186 | 0.0 | 0.0 | 0.00 | 0.00 | 0.00 | 75 | 1015.2 |
| 20260504033029 | 8 | 186 | 0.0 | 0.0 | 0.00 | 0.00 | 0.00 | 74 | 1015.3 |
| 20260504031524 | 8 | 186 | 0.0 | 0.0 | 0.00 | 0.00 | 0.00 | 74 | 1015.3 |
| 20260504030035 | 8 | 186 | 0.0 | 0.0 | 0.00 | 0.00 | 0.00 | 72 | 1015.3 |
| 20260504024524 | 8 | 186 | 0.0 | 0.0 | 0.00 | 0.00 | 0.00 | 72 | 1015.4 |
| 20260504023023 | 9 | 186 | 0.0 | 0.0 | 0.00 | 0.00 | 0.00 | 70 | 1015.4 |
| 20260504021522 | 9 | 186 | 0.0 | 0.0 | 0.00 | 0.00 | 0.00 | 68 | 1015.4 |
| 20260504020021 | 10 | 186 | 0.0 | 0.0 | 0.00 | 0.00 | 0.00 | 67 | 1015.0 |
| 20260504014523 | 10 | 186 | 0.0 | 0.0 | 0.00 | 0.00 | 0.00 | 66 | 1014.9 |
| 20260504013022 | 10 | 186 | 0.0 | 0.0 | 0.00 | 0.00 | 0.00 | 63 | 1014.6 |
| 20260504011522 | 11 | 186 | 0.0 | 0.0 | 0.00 | 0.00 | 0.00 | 61 | 1014.6 |
| 20260504010019 | 12 | 186 | 0.0 | 0.0 | 0.00 | 0.00 | 0.00 | 57 | 1014.3 |
| 20260504004522 | 12 | 186 | 0.0 | 0.0 | 0.00 | 0.00 | 0.00 | 57 | 1014.2 |
| 20260504003019 | 13 | 186 | 0.0 | 0.0 | 0.00 | 0.00 | 0.00 | 54 | 1014.0 |
| 20260504001519 | 14 | 186 | 0.0 | 0.0 | 0.00 | 0.00 | 0.00 | 51 | 1014.1 |
| 20260504000018 | 15 | 186 | 0.0 | 0.0 | 0.00 | 0.00 | 0.00 | 45 | 1014.0 |
| 20260503234522 | 16 | 186 | 0.0 | 0.0 | 0.00 | 0.00 | 0.00 | 45 | 1013.7 |
| 20260503233017 | 17 | 186 | 0.0 | 0.0 | 0.00 | 0.00 | 0.00 | 42 | 1013.8 |
| 20260503231519 | 17 | 186 | 0.0 | 4.8 | 0.00 | 0.00 | 0.00 | 36 | 1013.9 |
| 20260503230018 | 18 | 186 | 0.0 | 3.2 | 0.00 | 0.00 | 0.00 | 34 | 1013.8 |
| 20260503224514 | 18 | 186 | 0.0 | 0.0 | 0.00 | 0.00 | 0.00 | 33 | 1013.7 |
| 20260503223022 | 18 | 178 | 0.0 | 6.4 | 0.00 | 0.00 | 0.00 | 33 | 1014.0 |
| 20260503221514 | 18 | 178 | 1.6 | 11.3 | 0.00 | 0.00 | 0.00 | 33 | 1014.2 |
| 20260503220012 | 18 | 177 | 0.0 | 0.0 | 0.00 | 0.00 | 0.00 | 30 | 1014.4 |
| 20260503214510 | 18 | 177 | 0.0 | 3.2 | 0.00 | 0.00 | 0.00 | 31 | 1014.5 |
| 20260503213009 | 18 | 177 | 0.0 | 1.6 | 0.00 | 0.00 | 0.00 | 33 | 1014.7 |
| 20260503211515 | 18 | 177 | 1.6 | 14.5 | 0.00 | 0.00 | 0.00 | 31 | 1014.9 |